This is the latest recevied weather packets stored in our database for station/object KB1WCR. If no packets are shown the sender has not sent any weather packets the latest 10 day(s).
| Time | Temp. | Humidity | Pressure | Rain* | Wind** | Luminosity | Snow |
|---|---|---|---|---|---|---|---|
| 1777898455 | 10° C | 71% | 1008.5 hPa | 0 mm | - | 393 W/m² | - |
| 1777898153 | 10° C | 72% | 1008.6 hPa | 0 mm | - | 407 W/m² | - |
| 1777897850 | 10° C | 71% | 1008.6 hPa | 0 mm | - | 395 W/m² | - |
| 1777897546 | 8.89° C | 73% | 1008.6 hPa | 0 mm | - | 441 W/m² | - |
| 1777897242 | 8.89° C | 72% | 1008.6 hPa | 0 mm | - | 149 W/m² | - |
| 1777896938 | 8.33° C | 73% | 1008.6 hPa | 0 mm | - | 149 W/m² | - |
| 1777896635 | 8.89° C | 73% | 1008.8 hPa | 0 mm | - | 134 W/m² | - |
| 1777896332 | 8.89° C | 69% | 1008.6 hPa | 0 mm | - | 121 W/m² | - |
| 1777896030 | 8.89° C | 71% | 1008.7 hPa | 0 mm | - | 303 W/m² | - |
| 1777895728 | 8.33° C | 72% | 1008.8 hPa | 0 mm | - | 154 W/m² | - |
| 1777895425 | 8.33° C | 74% | 1008.7 hPa | 0 mm | - | 122 W/m² | - |
| 1777895122 | 8.33° C | 75% | 1008.6 hPa | 0 mm | - | 123 W/m² | - |
| 1777894820 | 8.33° C | 73% | 1008.9 hPa | 0 mm | - | 115 W/m² | - |
| 1777894516 | 7.78° C | 72% | 1008.6 hPa | 0 mm | - | 126 W/m² | - |
| 1777894214 | 7.78° C | 72% | 1008.8 hPa | 0 mm | - | 135 W/m² | - |
| 1777893910 | 8.33° C | 71% | 1008.6 hPa | 0 mm | - | 268 W/m² | - |
| 1777893607 | 7.78° C | 74% | 1008.8 hPa | 0 mm | - | 212 W/m² | - |
| 1777893303 | 7.22° C | 76% | 1008.6 hPa | 0 mm | - | 180 W/m² | - |
| 1777892999 | 6.67° C | 77% | 1008.7 hPa | 0 mm | - | 182 W/m² | - |
| 1777892697 | 7.22° C | 78% | 1008.6 hPa | 0 mm | - | 155 W/m² | - |
| 1777892392 | 6.11° C | 84% | 1008.5 hPa | 0 mm | - | 126 W/m² | - |
| 1777892088 | 4.44° C | 87% | 1008.6 hPa | 0 mm | - | 113 W/m² | - |
| 1777891786 | 3.33° C | 89% | 1008.6 hPa | 0 mm | - | 101 W/m² | - |
| 1777891483 | 3.33° C | 90% | 1008.8 hPa | 0 mm | - | 44 W/m² | - |
| 1777891178 | 3.89° C | 89% | 1008.7 hPa | 0 mm | - | 38 W/m² | - |
* Rain latest hour (hover to see other rain measurements)
** Current wind speed in m/s (hover to see current wind gust speed)